Location: Il Ritiro
(43.4167°N, 13.1333°E)
Time: 01:34:59
(UTC+00:00)

Cosmos 1766 Rocket - Pass Details

Date: 05 July 2020
Orbit: 606 x 632 km, 82.5° (Epoch: 11 August)

Event Time Altitude Azimuth Distance (km) Brightness Sun altitude
Exits shadow 22:44:23 74° 247° (WSW) 643 3.5 -23.6°
Maximum altitude 22:44:35 77° 278° (W) 638 3.5 -23.6°
Drops below altitude 10° 22:49:00 10° 5° (N) 1,996 7.2 -23.7°
Sets 22:51:16 0° 7° (N) 2,911 8.3 -23.7°
